Regional Weather Roundup
Issued by NWS Midland/Odessa, TX

Skip options and go directly to product.
Home | Oldest Version | Previous Version | Current Version | All | Text Only | Save Text | Print | Product List | Glossary On

Skip product version selection by date and time.   
245
ASUS44 KMAF 201410
RWRMAF
MIDLAND AREA WEATHER ROUNDUP
NATIONAL WEATHER SERVICE MIDLAND TX
900 AM CDT WED AUG 20 2014

...IN SOUTHWEST TEXAS AND SOUTHEAST NEW MEXICO...

CITY           SKY/WX    TMP DP  RH WIND       PRES   REMARKS
ALPINE         CLOUDY    71  62  73 CALM      30.12R
ANDREWS        FAIR      76  64  67 S13       29.97R
ARTESIA        PTSUNNY   77  57  50 S5        29.95S
BIG SPRING     SUNNY     79  66  64 S18       29.98R
CARLSBAD       CLOUDY    78  60  53 NE6       29.93R
DRYDEN           N/A     82  65  56 SE15      29.95R
FORT STOCKTON  NOT AVBL
GUAD PASS      CLOUDY    63  56  78 SW22      30.10R
HOBBS          SUNNY     75  63  64 S12       29.98R
MARFA          CLOUDY    64  63  94 W12       30.12S
MIDLAND AIRPK  SUNNY     78  65  63 S13G20    29.97R
MIDLAND INTL   SUNNY     78  65  63 S15       29.95R
ODESSA         SUNNY     78  64  61 S20G26    29.97R
PECOS          CLOUDY    77  65  65 CALM      29.93R
PRESIDIO       LGT RAIN  75  66  74 MISG      30.00R
SEMINOLE       SUNNY     75  64  67 S9        29.97R
SNYDER         SUNNY     75  67  76 S15       29.96R
WINK           CLOUDY    79  66  64 S8        29.93R
$$
...OTHER STATIONS IN TEXAS...

CITY           SKY/WX    TMP DP  RH WIND       PRES   REMARKS
ABILENE        SUNNY     77  65  66 S20       29.97R
AMARILLO       SUNNY     73  64  73 S21G26    29.95R
AUSTIN         PTSUNNY   80  75  84 S13       29.98R
BROWNSVILLE    SUNNY     86  78  77 SE15G21   29.93R
CORPUS CHRISTI MOSUNNY   84  78  82 SE12      29.94R
DALLAS FTW     PTSUNNY   81  71  71 S15       29.95S
DEL RIO        CLOUDY    79  70  74 E13       29.93R
EL PASO        MOSUNNY   71  59  65 SW15      30.01R
HOUSTON INT    MOSUNNY   84  78  82 SE5       29.99R
LUBBOCK        MOSUNNY   74  63  68 S15       29.96R
SAN ANGELO     SUNNY     76  67  73 S17G28    29.95S
SAN ANTONIO    CLOUDY    82  74  76 SE12      29.98R
WACO           PTSUNNY   80  73  79 S14       29.98R
WICHITA FALLS  NOT AVBL
$$
...OTHER LOCATIONS IN NEW MEXICO...

CITY           SKY/WX    TMP DP  RH WIND       PRES   REMARKS
ALAMAGORDO     MOSUNNY   68  55  64 S10       30.02R
ALBUQUERQUE    PTSUNNY   67  53  61 SE5       30.11R
CANNON AFB     SUNNY     71  65  82 S12       29.99R
CLOVIS           N/A     72  63  73 S12       30.01R
HOLLOMAN AFB   MOSUNNY   70  57  62 S13       30.00R
ROSWELL        PTSUNNY   72  60  66 CALM      29.94R
RUIDOSO        PTSUNNY   63  52  67 NW7       30.18R
SANTA FE       LGT RAIN  62  54  74 CALM      30.13R
TRUTH OR CONSE CLOUDY    68  59  73 CALM      30.06R
TUCUMCARI      SUNNY     75  59  57 SW10      29.92S
$$

USA.gov is the U.S. government's official web portal to all federal, state and local government web resources and services.